Live Position
Loading 3D Globe...
About SITRO-AIS-24
Group: 3 satellites
Description loading...
Upcoming Passes
Passes for default location (London). Set your location on the main map for personalized predictions.
Altitude History
Loading altitude history...
No altitude history available
Two-Line Element Set
1 61741U 24199G 26107.28829499 .00001910 00000-0 17558-3 0 9991
2 61741 97.3294 309.2638 0011056 269.1325 90.8630 14.95843110122789
Epoch: Apr 17, 2026 •
Age: 12 hours
Current Status
Altitude 594.5 km
Velocity 7.56 km/s
Sub-Earth Point 53.18°N,
12.84°E
Launch Date Nov 4, 2024
Age 1.4 years
Type other
Technical Details
Classification Payload
Mass 3.00 kg
Dry Mass 3.00 kg
Total Mass 3.00 kg
Length 0.30 m
Diameter 0.10 m
Span 0.30 m
Shape Box
Manufacturer SPUT
Bus Type Cubesat 3U
Phase Status In Orbit
Owner/State SITRO/RU
Most Searched
Loading...